Location: Betpouey
(42.8833°N, 0.0333°E)
Time: 07:41:24
(UTC+00:00)

COSMO-SKYMED 1 - Pass Details

Date: 01 December 2020
Orbit: 621 x 623 km, 97.9° (Epoch: 17 January)

Event Time Altitude Azimuth Distance (km) Brightness Sun altitude
Exits shadow 17:22:27 - 34° (NNE) 2,166 4.9 -10.1°
Reaches altitude 10° 17:22:55 10° 37° (NE) 2,002 4.7 -10.2°
Maximum altitude 17:26:38 27° 95° (E) 1,206 3.5 -10.8°
Drops below altitude 10° 17:30:18 10° 154° (SSE) 1,987 5.1 -11.4°
Sets 17:32:45 0° 166° (SSE) 2,888 6.1 -11.9°
